Wind_Speed
27 26 25 28 28 28 30 30 29 28 29 29 30 31 31 31 32 32 31 29 28 28 29 29 29 29 29 29 29 28 28 27 26 26 26 26 26 27 27 27 27 27 26 26
27 26 26 28 31 29 30 29 29 31 32 32 31 32 32 31 32 32 33 31 29 29 29 30 30 30 29 29 29 29 28 27 27 27 28 27 27 27 27 27 27 27 26 26
25 25 27 30 30 30 30 30 30 31 31 32 31 31 31 31 32 33 32 32 30 29 29 29 30 29 29 29 29 28 28 28 28 28 28 29 28 28 27 27 27 27 27 27
24 25 27 28 29 31 31 31 31 31 33 33 33 32 30 30 31 32 31 30 30 29 29 29 29 28 28 28 29 29 29 29 29 28 29 29 28 29 29 29 29 28 27 27
22 24 27 27 28 29 32 32 32 32 32 31 32 31 30 30 31 32 32 31 30 30 29 29 28 28 28 27 28 28 29 29 29 30 30 30 29 29 29 29 29 28 27 26
23 24 25 26 26 26 29 32 31 31 30 30 30 31 31 31 30 31 32 31 30 29 29 29 28 27 27 27 27 28 28 29 29 29 30 30 30 30 29 28 28 28 28 27
24 25 26 26 26 26 29 32 31 31 31 30 31 33 32 30 30 31 30 30 30 29 28 28 27 27 27 27 27 27 28 28 28 29 29 29 29 29 28 28 27 27 27 27
25 25 25 26 27 27 28 30 31 31 31 32 33 33 32 32 32 31 30 30 29 29 28 27 27 27 27 27 28 28 28 28 28 28 28 28 29 28 28 28 28 27 27 27
26 26 27 27 27 28 28 30 31 32 32 33 33 33 34 33 33 32 31 30 29 28 28 27 27 27 27 27 27 28 28 27 28 28 28 28 28 29 29 28 28 28 28 27
25 26 27 27 28 29 30 31 31 31 31 32 32 33 33 32 31 30 29 28 29 29 28 28 28 28 27 27 27 27 27 27 27 28 28 28 28 28 28 28 28 28 28 28
26 25 26 28 29 28 29 31 31 31 31 31 31 32 31 31 31 30 29 29 28 28 28 28 28 28 28 27 28 28 28 28 28 27 28 28 28 28 28 28 28 28 28 27
24 26 27 27 28 29 29 30 30 31 31 32 32 32 31 31 31 31 29 28 28 28 27 27 27 27 27 27 27 27 27 27 27 27 27 27 27 28 28 27 27 28 28 27
24 26 27 28 28 28 28 29 29 29 29 30 31 31 31 31 30 29 29 29 29 28 28 28 28 27 27 27 27 27 27 27 27 27 26 26 27 27 27 27 27 28 28 28
24 25 26 26 26 27 27 27 27 27 28 29 29 29 29 29 30 30 30 30 29 29 28 29 29 28 28 28 28 27 28 27 27 27 27 26 27 27 27 26 27 28 28 28
22 23 24 25 25 26 25 25 26 26 27 27 27 27 27 28 28 28 29 29 30 30 30 30 29 29 28 28 28 28 28 27 27 27 27 27 27 27 27 27 27 27 28 27
22 22 22 23 24 24 24 24 25 25 25 25 25 25 25 26 26 27 28 29 29 29 29 29 29 28 29 29 28 28 27 27 26 26 26 27 27 27 27 27 26 26 26 26
22 22 23 23 24 24 24 24 23 24 24 24 24 25 25 24 24 24 25 26 26 26 26 26 27 27 28 28 28 28 28 27 28 27 27 28 28 28 27 27 26 26 26 26
21 21 21 22 22 23 23 23 22 23 23 23 23 23 23 23 23 23 23 24 24 25 25 25 25 25 25 25 25 26 27 26 26 27 27 27 27 27 26 26 26 27 26 26
20 21 21 21 20 20 21 21 21 20 20 19 20 20 21 21 21 21 22 22 22 23 23 24 24 25 24 24 24 25 25 25 25 26 26 27 26 25 25 25 25 25 25 26
19 20 20 19 19 19 19 19 19 19 19 19 19 19 19 19 20 20 20 21 21 22 22 22 22 23 23 23 23 23 24 24 25 26 26 26 25 25 25 25 25 25 25 25
19 19 18 19 18 18 18 18 18 18 18 19 18 18 18 18 18 18 18 19 19 19 19 20 21 21 21 22 22 22 23 23 24 25 25 25 25 25 25 26 25 25 25 26
18 18 18 18 17 17 17 17 17 17 16 17 16 16 17 16 16 17 17 17 17 18 18 19 19 18 19 19 20 20 21 22 22 23 23 24 24 24 24 25 24 25 25 26
17 16 16 15 15 15 15 15 15 15 15 15 15 15 15 15 15 16 16 17 17 18 18 17 18 18 19 19 20 20 21 21 21 22 22 22 23 24 24 24 24 24 24 25
16 16 15 15 14 13 13 14 14 14 13 13 13 14 14 15 15 16 16 16 16 17 17 18 19 19 19 20 20 19 20 20 20 21 21 22 22 23 24 25 24 24 24 24
15 15 14 13 13 13 13 12 12 13 12 13 13 14 14 14 14 15 15 16 16 17 17 18 18 18 18 18 18 18 18 19 20 21 21 21 21 23 24 24 24 24 24 24
14 13 12 12 12 12 11 11 11 11 11 12 12 13 13 13 13 14 15 15 15 16 16 16 17 17 17 18 18 18 18 18 18 19 19 20 21 21 21 21 22 23 24 25
13 12 12 12 12 12 11 11 11 11 12 12 12 13 13 13 14 14 15 15 15 15 16 17 17 17 17 18 18 18 18 18 18 18 18 18 19 20 21 22 22 23 23 24
Wind_Direction
238 238 237 240 241 242 245 246 247 249 255 258 259 261 264 265 267 266 268 268 270 272 272 273 273 272 271 272 272 274 274 274 275 275 276 275 274 274 273 273 274 274 273 274
241 240 240 242 241 244 247 248 247 250 254 259 261 262 264 266 267 269 269 272 272 273 273 274 274 273 271 270 270 271 272 272 273 274 275 276 276 275 273 273 274 273 274 274
244 243 243 244 245 246 246 247 247 250 255 256 259 260 261 264 267 270 271 272 272 272 274 274 273 273 272 270 269 269 271 272 273 273 275 276 276 274 273 274 274 274 273 274
249 244 244 244 246 249 250 245 245 249 254 257 260 260 261 262 265 267 269 271 271 272 273 273 272 271 271 270 268 268 269 270 272 273 274 275 275 273 272 273 274 275 273 274
252 249 250 247 246 248 248 248 247 249 253 256 259 262 261 263 266 268 269 269 272 272 272 272 271 271 271 270 270 269 269 270 270 271 272 272 273 274 274 273 274 274 273 273
253 254 256 254 253 251 251 249 250 252 252 255 259 262 263 265 265 269 270 270 271 271 271 270 270 270 270 269 271 272 272 272 271 272 272 271 271 273 274 274 274 274 274 273
254 255 257 256 255 255 253 252 253 255 257 257 259 263 266 265 265 266 267 269 269 270 270 269 269 270 270 269 270 272 273 273 272 272 272 271 271 272 273 274 274 274 274 274
254 254 256 258 256 256 257 257 257 257 258 259 260 263 264 264 264 265 267 268 268 268 269 270 270 271 271 270 271 272 274 274 274 273 271 271 271 272 272 272 274 274 273 272
255 254 256 258 260 259 259 261 261 262 261 260 261 262 262 264 264 264 265 267 267 267 268 270 271 271 272 272 272 272 273 273 273 273 273 273 273 273 271 271 273 273 272 272
257 254 256 258 259 260 259 260 262 263 264 263 263 262 262 262 261 262 263 264 266 267 268 270 271 271 272 273 273 273 273 273 273 273 274 273 272 272 272 272 272 273 273 273
258 259 262 260 261 263 262 261 262 263 264 264 264 263 262 262 262 262 261 262 263 266 268 269 270 271 272 273 273 273 272 273 273 274 274 273 272 272 273 273 273 273 273 273
257 259 264 267 265 266 265 265 265 265 264 263 264 264 263 262 263 262 260 260 262 264 267 268 269 270 271 273 273 273 273 272 273 274 275 275 274 273 273 273 273 273 272 271
259 262 265 267 267 269 268 267 267 267 266 265 265 264 265 264 262 260 259 260 262 264 266 268 269 270 271 272 273 274 274 273 273 273 275 276 275 275 275 274 275 275 273 272
264 264 264 265 267 269 270 268 268 267 266 265 265 265 265 264 262 260 261 262 264 266 268 269 270 271 272 272 272 272 272 272 272 273 274 275 274 274 275 274 275 274 273 274
268 269 269 270 271 271 272 271 270 267 266 265 264 264 265 263 261 260 260 263 265 268 270 270 271 271 272 272 271 271 271 270 270 271 272 273 273 275 276 276 276 276 276 275
272 272 272 273 275 273 271 270 269 267 265 264 264 264 265 266 264 262 262 264 266 269 270 270 270 271 271 271 270 271 270 269 268 269 271 272 273 275 277 276 277 276 276 274
275 274 273 275 276 275 274 271 270 268 266 266 265 264 264 266 265 263 264 265 265 267 268 270 270 270 270 270 270 270 270 269 268 268 270 272 273 275 275 274 275 275 275 276
278 277 276 276 276 276 276 274 272 269 268 266 264 265 264 265 266 265 266 267 267 267 268 269 270 271 271 270 271 270 269 268 267 268 270 271 273 274 274 273 273 273 273 275
281 280 280 280 279 278 276 275 274 271 268 266 264 264 264 265 265 265 267 268 268 269 269 269 269 270 270 271 271 271 269 269 269 268 269 271 271 271 273 274 274 275 274 275
284 282 281 280 280 279 277 275 274 272 270 267 266 267 268 268 267 266 266 268 272 272 270 270 271 271 271 273 273 272 271 270 269 269 269 270 270 270 271 272 273 274 274 276
288 286 284 281 280 280 278 275 273 270 267 267 267 267 266 265 266 265 266 270 274 276 274 274 276 277 277 275 272 272 271 270 270 271 270 271 271 270 270 270 272 272 274 275
290 288 285 282 282 281 279 277 275 271 267 266 266 265 265 266 269 269 269 273 276 277 278 277 276 276 278 275 272 270 271 272 273 273 272 271 271 272 271 271 271 272 273 276
295 293 289 284 282 281 278 277 277 275 272 269 267 267 269 270 272 271 270 271 273 275 277 276 275 274 275 276 275 274 273 273 274 274 274 274 273 273 272 270 272 273 274 276
297 297 294 289 285 282 279 277 276 275 273 271 268 268 270 270 270 270 272 274 276 278 279 279 280 278 277 278 276 274 274 274 275 276 276 275 274 274 273 272 273 274 275 277
299 298 295 290 286 284 279 275 274 275 273 268 267 267 268 269 269 269 271 273 275 279 280 280 281 280 279 280 277 275 275 275 276 276 277 277 276 276 277 275 274 274 276 277
303 300 299 297 291 286 282 277 276 275 271 268 271 272 272 273 276 278 278 278 277 277 279 281 281 281 281 281 281 279 280 281 282 280 279 279 277 277 278 279 278 277 277 278
305 302 300 298 295 292 287 282 280 278 276 275 277 278 277 277 280 282 283 283 281 281 282 283 283 282 281 281 281 282 282 283 285 286 286 285 281 278 279 280 281 281 281 279
Height
5764 5767 5770 5772 5774 5776 5777 5779 5780 5783 5782 5781 5781 5782 5783 5784 5784 5784 5783 5784 5784 5785 5785 5785 5785 5785 5785 5785 5785 5785 5785 5785 5785 5785 5784 5784 5784 5784 5783 5783 5783 5783 5783 5783
5757 5760 5762 5763 5766 5768 5770 5771 5773 5774 5774 5774 5774 5775 5776 5776 5776 5776 5776 5776 5777 5777 5777 5778 5777 5777 5777 5778 5778 5778 5778 5778 5778 5777 5777 5777 5777 5776 5776 5776 5776 5776 5776 5776
5750 5753 5754 5755 5758 5760 5762 5764 5765 5766 5767 5767 5766 5767 5768 5768 5768 5768 5768 5768 5769 5770 5770 5770 5770 5770 5770 5770 5770 5770 5770 5770 5770 5770 5769 5769 5769 5769 5769 5768 5768 5768 5768 5768
5742 5745 5746 5750 5752 5753 5754 5755 5757 5758 5758 5758 5759 5758 5758 5760 5760 5760 5760 5761 5761 5762 5762 5762 5762 5762 5762 5762 5762 5762 5762 5762 5762 5762 5761 5761 5761 5761 5761 5761 5760 5760 5760 5760
5736 5737 5738 5742 5743 5745 5746 5747 5748 5749 5749 5749 5749 5750 5750 5751 5752 5752 5752 5753 5754 5754 5755 5754 5754 5754 5754 5754 5753 5754 5754 5753 5753 5753 5753 5753 5753 5753 5753 5753 5752 5752 5752 5752
5729 5730 5731 5734 5735 5736 5738 5738 5739 5740 5740 5740 5741 5743 5744 5744 5744 5744 5745 5745 5746 5746 5746 5747 5747 5746 5746 5746 5746 5746 5745 5745 5745 5745 5745 5744 5744 5744 5745 5745 5744 5744 5744 5744
5722 5722 5723 5726 5727 5727 5729 5730 5731 5732 5732 5733 5734 5734 5735 5735 5736 5736 5737 5737 5738 5738 5738 5739 5739 5739 5738 5738 5738 5738 5737 5737 5737 5737 5736 5736 5736 5736 5736 5736 5736 5736 5736 5736
5715 5716 5719 5718 5719 5721 5721 5721 5722 5723 5724 5725 5726 5726 5727 5727 5728 5728 5728 5729 5730 5730 5731 5731 5731 5731 5731 5730 5730 5730 5730 5729 5729 5729 5728 5728 5728 5728 5728 5728 5728 5728 5728 5728
5708 5710 5709 5710 5711 5712 5713 5713 5714 5715 5716 5717 5717 5718 5719 5719 5719 5720 5720 5720 5721 5722 5723 5723 5723 5723 5723 5723 5722 5722 5722 5721 5721 5721 5720 5720 5720 5720 5720 5720 5720 5720 5719 5719
5699 5700 5701 5702 5703 5703 5704 5705 5705 5706 5706 5707 5708 5708 5709 5709 5710 5710 5711 5712 5713 5714 5715 5715 5715 5715 5715 5715 5715 5714 5714 5714 5713 5713 5713 5712 5712 5711 5711 5712 5712 5712 5711 5711
5692 5693 5693 5694 5695 5695 5695 5695 5696 5697 5697 5698 5698 5699 5700 5701 5701 5702 5703 5703 5704 5705 5706 5707 5707 5708 5708 5708 5707 5707 5706 5706 5706 5705 5705 5704 5704 5704 5704 5704 5703 5703 5703 5703
5685 5686 5686 5687 5687 5687 5687 5687 5688 5688 5688 5689 5689 5690 5691 5691 5692 5693 5694 5695 5696 5697 5698 5699 5699 5700 5700 5700 5699 5699 5699 5698 5698 5698 5697 5697 5696 5696 5696 5696 5695 5695 5694 5694
5678 5678 5678 5679 5679 5679 5679 5679 5679 5679 5679 5679 5680 5680 5681 5682 5683 5684 5685 5686 5688 5689 5690 5691 5691 5691 5692 5691 5691 5691 5690 5690 5690 5690 5689 5689 5688 5688 5688 5688 5687 5686 5686 5685
5671 5671 5670 5670 5671 5671 5670 5670 5670 5671 5671 5671 5671 5672 5672 5673 5675 5676 5677 5678 5679 5680 5681 5682 5682 5683 5683 5683 5682 5682 5682 5682 5682 5682 5681 5681 5681 5680 5680 5680 5679 5678 5677 5677
5665 5664 5663 5664 5664 5663 5663 5662 5662 5663 5662 5663 5663 5664 5665 5665 5666 5668 5669 5670 5671 5672 5673 5673 5674 5674 5674 5674 5674 5673 5673 5673 5673 5673 5673 5673 5673 5672 5672 5671 5671 5670 5670 5669
5658 5657 5657 5657 5656 5656 5655 5655 5655 5655 5655 5655 5656 5657 5658 5658 5659 5660 5661 5662 5663 5664 5664 5664 5665 5665 5665 5665 5665 5665 5665 5665 5665 5665 5665 5665 5665 5664 5664 5663 5663 5662 5662 5662
5653 5652 5652 5651 5650 5650 5649 5649 5648 5648 5648 5648 5649 5649 5650 5651 5651 5652 5653 5654 5654 5655 5656 5656 5656 5656 5657 5656 5656 5656 5656 5656 5656 5657 5657 5657 5657 5656 5656 5655 5655 5655 5655 5654
5647 5646 5645 5644 5644 5643 5642 5642 5642 5641 5641 5641 5642 5642 5643 5644 5645 5645 5646 5646 5647 5648 5648 5648 5648 5648 5648 5648 5648 5648 5648 5648 5648 5648 5648 5649 5649 5648 5648 5647 5647 5647 5647 5647
5642 5640 5639 5639 5638 5637 5636 5635 5635 5635 5634 5634 5635 5636 5636 5637 5637 5638 5639 5640 5640 5641 5641 5641 5641 5640 5640 5640 5640 5639 5639 5639 5640 5640 5640 5640 5640 5640 5640 5640 5640 5639 5639 5639
5636 5635 5634 5633 5632 5631 5631 5630 5629 5629 5629 5629 5629 5630 5630 5631 5632 5633 5633 5634 5634 5634 5634 5633 5633 5633 5633 5632 5632 5631 5632 5632 5632 5632 5632 5632 5632 5633 5632 5632 5632 5632 5632 5632
5631 5630 5629 5628 5627 5626 5625 5624 5624 5624 5623 5623 5624 5624 5625 5626 5627 5627 5628 5628 5628 5628 5627 5627 5627 5626 5626 5625 5625 5625 5625 5625 5625 5625 5625 5625 5625 5625 5625 5625 5625 5624 5624 5624
5626 5625 5623 5622 5622 5621 5620 5619 5619 5619 5619 5619 5619 5619 5620 5621 5621 5622 5622 5622 5623 5622 5622 5621 5620 5620 5620 5619 5619 5618 5618 5618 5618 5618 5617 5617 5617 5617 5617 5617 5618 5617 5617 5616
5622 5620 5619 5618 5617 5616 5615 5614 5614 5614 5614 5614 5615 5615 5616 5616 5617 5617 5617 5617 5617 5617 5617 5616 5616 5615 5614 5614 5613 5613 5612 5612 5611 5611 5611 5611 5611 5610 5610 5610 5610 5610 5610 5609
5617 5616 5615 5613 5612 5612 5611 5610 5610 5610 5610 5610 5610 5611 5612 5612 5612 5612 5612 5612 5612 5612 5611 5611 5610 5610 5609 5608 5608 5607 5606 5606 5605 5605 5604 5604 5604 5603 5603 5603 5603 5603 5602 5602
5613 5612 5611 5609 5609 5608 5607 5606 5606 5606 5606 5606 5606 5607 5607 5608 5608 5607 5607 5607 5607 5607 5606 5606 5605 5604 5604 5603 5602 5602 5601 5600 5600 5599 5598 5597 5597 5597 5596 5596 5595 5595 5595 5594
5610 5609 5607 5606 5605 5604 5603 5603 5603 5602 5602 5602 5602 5602 5603 5603 5603 5603 5603 5603 5602 5602 5601 5600 5600 5599 5598 5598 5597 5596 5596 5595 5594 5593 5592 5591 5590 5590 5589 5589 5588 5587 5586 5586
5607 5605 5604 5603 5602 5601 5600 5599 5599 5599 5598 5598 5598 5599 5599 5599 5599 5598 5598 5598 5597 5597 5596 5595 5594 5593 5592 5592 5591 5591 5590 5590 5589 5588 5587 5585 5584 5583 5583 5581 5581 5580 5579 5578